Location: Curupao
(10.4996°N, 66.6442°W)
Time: 12:10:52
(UTC+00:00)

Cosmos 1727 Rocket - Pass Details

Date: 23 May 2024
Orbit: 961 x 995 km, 82.9° (Epoch: 24 June)

Event Time Altitude Azimuth Distance (km) Brightness Sun altitude
Rises 09:34:27 0° 356° (N) 3,667 7.3 -7.5°
Reaches altitude 10° 09:36:57 10° 356° (N) 2,725 6.6 -6.9°
Maximum altitude 09:43:13 90° 280° (W) 989 4.1 -5.5°
Drops below altitude 10° 09:49:32 10° 177° (S) 2,747 6.2 -4.1°
Sets 09:52:03 0° 177° (S) 3,699 6.8 -3.5°
